Volver al catálogo

DELTA 1 DEB

ActivoPO
NORAD 8004·DEBRIS·🇺🇸 United States

Lanzado Jul 23, 1972 desde Vandenberg Space Force Base

Loading…

Próximos Pases (próximas 24 horas)

TLE

ActualizadoSource: Space-Track

Época: Sep 14, 2026, 17:47 UTC

1 08004U 72058DF  26257.74098111  .00002308  00000-0  57989-3 0  9991
2 08004  97.5708 253.6330 0180926 347.1438  12.5172 14.42710408787717

Sigue DELTA 1 DEB en tiempo real con AllMySat

Download on the App Store